| time (UTC) | temp C | wind direction | speed KPH | gust KPH | rain 1hr cm | rain 24hr cm | rain mn cm | humidity % | barometer mb |
| 20260504204556 | 27 | 0 | 1.6 | 19.3 | 0.00 | 0.00 | 0.00 | 45 | 1002.5 |
| 20260504203058 | 27 | 178 | 6.4 | 25.7 | 0.00 | 0.00 | 0.00 | 47 | 1002.5 |
| 20260504201607 | 27 | 165 | 3.2 | 19.3 | 0.00 | 0.00 | 0.00 | 47 | 1002.8 |
| 20260504200103 | 26 | 148 | 3.2 | 22.5 | 0.00 | 0.00 | 0.00 | 49 | 1003.0 |
| 20260504194556 | 26 | 128 | 3.2 | 17.7 | 0.00 | 0.00 | 0.00 | 49 | 1003.4 |
| 20260504193055 | 25 | 138 | 1.6 | 9.7 | 0.00 | 0.00 | 0.00 | 58 | 1003.4 |
| 20260504191626 | 23 | 0 | 1.6 | 11.3 | 0.00 | 0.00 | 0.00 | 59 | 1003.6 |
| 20260504190111 | 22 | 213 | 0.0 | 8.0 | 0.00 | 0.00 | 0.00 | 63 | 1003.9 |
| 20260504184606 | 20 | 0 | 0.0 | 9.7 | 0.00 | 0.00 | 0.00 | 66 | 1003.4 |
| 20260504183105 | 20 | 110 | 0.0 | 8.0 | 0.00 | 0.00 | 0.00 | 67 | 1003.3 |
| 20260504181605 | 20 | 0 | 0.0 | 6.4 | 0.00 | 0.00 | 0.00 | 64 | 1004.5 |
| 20260504180101 | 21 | 0 | 0.0 | 6.4 | 0.00 | 0.00 | 0.00 | 59 | 1005.0 |
| 20260504174604 | 21 | 116 | 0.0 | 4.8 | 0.00 | 0.00 | 0.00 | 58 | 1004.6 |
| 20260504173103 | 21 | 105 | 1.6 | 12.9 | 0.00 | 0.00 | 0.00 | 55 | 1004.9 |
| 20260504171601 | 22 | 171 | 1.6 | 12.9 | 0.00 | 0.00 | 0.00 | 54 | 1005.4 |
| 20260504160104 | 18 | 0 | 0.0 | 9.7 | 0.00 | 0.00 | 0.00 | 68 | 1005.8 |
| 20260504120130 | 15 | 0 | 0.0 | 4.8 | 0.00 | 0.00 | 0.00 | 74 | 1008.1 |
| 20260504081610 | 13 | 0 | 0.0 | 0.0 | 0.00 | 0.00 | 0.00 | 76 | 1008.1 |
| 20260504044606 | 18 | 0 | 0.0 | 4.8 | 0.00 | 0.00 | 0.00 | 58 | 1008.0 |
| 20260504043112 | 18 | 0 | 0.0 | 4.8 | 0.00 | 0.00 | 0.00 | 57 | 1008.1 |
| 20260504041558 | 19 | 181 | 0.0 | 3.2 | 0.00 | 0.00 | 0.00 | 57 | 1008.5 |
| 20260504040058 | 20 | 0 | 0.0 | 3.2 | 0.00 | 0.00 | 0.00 | 55 | 1009.0 |
| 20260504034600 | 20 | 0 | 0.0 | 4.8 | 0.00 | 0.00 | 0.00 | 55 | 1009.0 |
| 20260504033128 | 20 | 0 | 0.0 | 3.2 | 0.00 | 0.00 | 0.00 | 55 | 1008.9 |
| 20260504031600 | 20 | 0 | 0.0 | 3.2 | 0.00 | 0.00 | 0.00 | 55 | 1008.9 |
| 20260504030115 | 20 | 0 | 0.0 | 6.4 | 0.00 | 0.00 | 0.00 | 55 | 1009.1 |
| 20260504024555 | 20 | 0 | 0.0 | 1.6 | 0.00 | 0.00 | 0.00 | 55 | 1008.9 |
| 20260504023058 | 20 | 0 | 0.0 | 3.2 | 0.00 | 0.00 | 0.00 | 54 | 1008.9 |
| 20260504021557 | 21 | 0 | 0.0 | 3.2 | 0.00 | 0.00 | 0.00 | 53 | 1008.9 |
| 20260504020105 | 21 | 0 | 0.0 | 1.6 | 0.00 | 0.00 | 0.00 | 52 | 1008.8 |
| 20260504014604 | 22 | 0 | 0.0 | 0.0 | 0.00 | 0.00 | 0.00 | 50 | 1008.9 |
| 20260504013100 | 22 | 0 | 0.0 | 0.0 | 0.00 | 0.00 | 0.00 | 49 | 1008.8 |
| 20260504011559 | 23 | 0 | 0.0 | 1.6 | 0.00 | 0.00 | 0.00 | 46 | 1008.7 |
| 20260504004600 | 23 | 0 | 0.0 | 1.6 | 0.00 | 0.00 | 0.00 | 43 | 1008.3 |
| 20260504003114 | 24 | 0 | 0.0 | 3.2 | 0.00 | 0.00 | 0.00 | 42 | 1008.3 |
| 20260504001600 | 24 | 0 | 0.0 | 1.6 | 0.00 | 0.00 | 0.00 | 41 | 1008.3 |
| 20260504000105 | 25 | 0 | 0.0 | 3.2 | 0.00 | 0.00 | 0.00 | 41 | 1008.3 |
| 20260503234558 | 25 | 0 | 0.0 | 3.2 | 0.00 | 0.00 | 0.00 | 40 | 1008.3 |
| 20260503233102 | 25 | 220 | 0.0 | 6.4 | 0.00 | 0.00 | 0.00 | 38 | 1008.3 |
| 20260503231556 | 25 | 181 | 1.6 | 12.9 | 0.00 | 0.00 | 0.00 | 37 | 1008.3 |
| 20260503230110 | 26 | 200 | 0.0 | 11.3 | 0.00 | 0.00 | 0.00 | 35 | 1008.6 |
| 20260503224556 | 26 | 0 | 1.6 | 16.1 | 0.00 | 0.00 | 0.00 | 34 | 1008.7 |
| 20260503223110 | 26 | 0 | 1.6 | 8.0 | 0.00 | 0.00 | 0.00 | 36 | 1008.7 |
| 20260503221555 | 26 | 104 | 1.6 | 11.3 | 0.00 | 0.00 | 0.00 | 35 | 1008.9 |
| 20260503220055 | 26 | 232 | 3.2 | 14.5 | 0.00 | 0.00 | 0.00 | 33 | 1009.1 |
| 20260503214559 | 26 | 209 | 1.6 | 8.0 | 0.00 | 0.00 | 0.00 | 33 | 1009.2 |
| 20260503213057 | 26 | 0 | 1.6 | 14.5 | 0.00 | 0.00 | 0.00 | 32 | 1009.4 |
| 20260503211557 | 26 | 248 | 3.2 | 19.3 | 0.00 | 0.00 | 0.00 | 34 | 1009.4 |
| 20260503210058 | 26 | 247 | 1.6 | 12.9 | 0.00 | 0.00 | 0.00 | 35 | 1009.6 |